Погода в Северном

Россия / Белгородская область     50°40′38″N   36°33′38″E
темп.,
°C
ветер,
м/с
пор.,
м/с
влажн.,
%
обл.,
%
осадки,
мм/ч
давл.,
гПа
погр.,
м
20 июня, вс
вс2000:00+17в410895 0.0 1022198
03:00+16в5118630 0.0 1021224
06:00+16в5128487 0.0 1021282
09:00+20в6107098 0.0 1021453
12:00+24в686149 0.0 1020773
15:00+24в696599 0.0 1019884
18:00+22в51074100 0.0 1018608
21:00+18всв4108858 0.0 1018205
21 июня, пн
пн2100:00+18всв51382100 0.0 1018250
03:00+18в513788 0.0 1017251
06:00+17в51182100 0.0 1017223
09:00+20в5127697 0.0 1017318
12:00+26вюв6106159 0.0 1017671
15:00+27в7116393 0.0 1017925
18:00+25в5117047 0.0 1016647
21:00+21в411865 0.0 1017201
22 июня, вт
вт2200:00+19в413813 0.0 1017241
03:00+19в515775 0.0 1017287
06:00+19в411827 0.0 1017239
09:00+23вюв51068100 0.0 1017393
12:00+27вюв5757100 0.0 1017648
15:00+29вюв685973 0.0 10171101
18:00+28в5107039 0.0 1017682
21:00+23всв4118873 0.0 1017216
23 июня, ср
ср2300:00+22в515835 0.0 1017323
03:00+20всв4128157 0.0 1017204
06:00+21всв51380100 0.0 1017274
09:00+25в597099 0.0 1017348
12:00+28в5755100 0.0 1017650
15:00+29в5862100 0.0 1017808
18:00+27вюв4872100 0.0 1018408
21:00+24в388198 0.0 1018139
24 июня, чт
чт2400:00+22в3682100 0.0 1018101
03:00+21в468289 0.0 101993
06:00+21всв378396 0.0 1019123
09:00+26в586556 0.0 1019336
12:00+29вюв565431 0.0 1019719
15:00+31в455030 0.0 10191064
18:00+29всв36649 0.0 1018330
21:00+24в33795 0.0 101925